Simultaneous Nadir Overpasses (SNOs) Predictions

Prediction of SNOs between METOP-B and NOAA-19 Satellite Orbit:

Table of predicted SNOs for the next 14.0 days since TLE Epoch: 11/6/2016
Index Date (METOP-B) Time (METOP-B) Lat,Lon (METOP-B) SZA (METOP-B ) Date (NOAA-19) Time (NOAA-19) Lat,Lon (NOAA-19) SZA (NOAA-19 ) Distance(km) Time Diff (sec)
1 11/11/2016 23:31:05 76.69,-169.77 94.45 11/11/2016 23:29:53 76.67,-170.92 94.40 29.52 72
2 11/12/2016 00:21:50 -76.53, -3.06 85.72 11/12/2016 00:20:45 -76.54, -3.14 85.71 2.89 65
3 11/12/2016 01:12:31 76.49, 164.14 94.25 11/12/2016 01:11:51 76.50, 164.25 94.26 2.89 40
4 11/12/2016 02:03:12 -76.51, -28.47 85.72 11/12/2016 02:02:46 -76.51, -28.50 85.73 0.91 26
5 11/12/2016 02:53:53 76.47, 138.74 94.25 11/12/2016 02:53:53 76.51, 138.72 94.29 3.79 0
6
